#timestamp,LO_Frequency,Hit,StdDev 
1662548415.1,286047003.8,N
1662548435.8,286047003.8,N
1662548455.7,286047003.7,N
1662548475.5,286047003.6,N
1662548495.4,286047003.7,N
1662548515.2,286047003.9,N
1662548535.0,286047003.8,N
1662548535.9,286047003.8,N
1662548555.8,286047004.4,N
1662548575.6,286047001.8,N
1662548595.4,286047002.6,N
1662548615.3,286047001.6,N
1662548635.1,286046999.7,N
1662548655.9,286047002.6,N
1662548675.7,286047002.5,N
1662548695.5,286047000.1,N
1662548715.4,286047002.3,N
1662548735.2,286047001.6,N
1662548755.0,286047002.8,N
1662548755.9,286047002.8,N
1662548775.8,286047002.7,N
1662548795.6,286047002.4,N
1662548815.5,286047002.0,N
1662548835.3,286047000.3,N
1662548855.1,286047000.2,N
1662548875.9,286047000.0,N
1662548895.7,286046999.8,N
1662548915.6,286047002.3,N
1662548935.4,286047002.7,N
1662548955.2,286047002.7,N
1662548975.1,286046999.7,N
1662548976.0,286046999.7,N
1662548995.8,286047000.1,N
1662549015.6,286046999.9,N
1662549035.5,286047001.0,N
1662549055.3,286047000.9,N
1662549075.2,286047000.9,N
1662549095.9,286047001.2,N
1662549115.7,286046999.4,N
1662549135.6,286046997.3,N
1662549155.4,286046996.6,N
1662549175.2,286046996.8,N
1662549195.1,286046997.4,N
1662549196.0,286046997.4,N
1662549215.8,286046999.6,N
1662549235.7,286046997.2,N
1662549255.5,286046997.2,N
1662549275.3,286046996.7,N
1662549295.2,286046996.6,N
1662549315.0,286046999.1,N
1662549315.9,286046999.1,N
1662549335.8,286046997.0,N
1662549355.6,286046997.2,N
1662549375.4,286046997.6,N
1662549395.3,286046995.4,N
1662549415.1,286046995.4,N
1662549435.8,286046995.7,N
1662549455.7,286046995.8,N
1662549475.5,286046996.1,N
1662549495.4,286046995.6,N
1662549515.2,286046995.1,N
1662549535.0,286046994.9,N
1662549535.9,286046994.9,N
1662549555.8,286046994.9,N
1662549575.6,286046998.0,N
1662549595.5,286046998.0,N
1662549615.3,286046995.4,N
1662549635.1,286046995.7,N
1662549655.9,286046995.7,Y
1662549675.7,286046998.8,P
1662549695.5,286046998.5,N
1662549715.4,286046998.8,N
1662549735.2,286046997.1,Y
1662549755.1,286047000.7,P
1662549756.0,286047000.7,N
1662549775.8,286046998.2,N
1662549795.6,286046998.3,N
1662549815.5,286047001.0,N
1662549835.3,286046998.2,N
1662549855.1,286046998.2,N
1662549875.9,286046998.4,N
1662549895.7,286046998.4,N
1662549915.6,286046999.6,N
1662549935.4,286046998.4,N
1662549955.2,286046998.2,N
1662549975.1,286046998.1,N
1662549976.0,286046998.1,N
1662549995.8,286047000.7,N
1662550015.6,286046998.1,N
1662550035.5,286046998.8,N
1662550055.3,286046999.3,N
1662550075.2,286046998.4,N
1662550095.9,286046999.2,N
1662550115.7,286046997.1,N
1662550135.6,286046996.8,Y
1662550155.4,286046999.3,P
1662550175.2,286047000.5,N
1662550195.1,286047000.7,N
1662550196.0,286047000.7,N
1662550215.8,286047001.1,N
1662550235.7,286047001.2,N
1662550255.5,286046998.1,N
1662550275.3,286046998.6,N
1662550295.2,286046998.3,N
1662550315.0,286046999.0,N
1662550315.9,286046999.0,N
1662550335.8,286046999.4,N
1662550355.6,286046999.0,N
1662550375.4,286046998.7,N
1662550395.3,286046999.4,N
1662550415.1,286046997.0,Y
1662550435.9,286046996.9,P
1662550455.7,286046999.4,N
1662550475.5,286046999.5,N
1662550495.4,286046998.9,N
1662550515.2,286046999.4,N
1662550535.0,286046997.0,Y
1662550536.0,286046997.0,P
1662550555.8,286047000.8,N
1662550575.6,286047000.7,N
1662550595.5,286047000.0,N
1662550615.3,286046998.5,N
1662550635.1,286046999.0,N
1662550655.9,286046999.4,N
1662550675.7,286046998.1,N
1662550695.6,286046998.6,N
1662550715.4,286046999.5,N
1662550735.2,286046999.6,N
1662550755.1,286046997.7,N
1662550756.0,286046997.7,N
1662550775.8,286046997.7,N
1662550795.6,286046999.6,N
1662550815.5,286046999.2,N
1662550835.3,286046998.9,N
1662550855.2,286046998.1,N
1662550875.9,286046998.5,N
1662550895.7,286046998.6,N
1662550915.6,286046998.6,N
1662550935.4,286046999.0,N
1662550955.3,286046996.7,Y
1662550975.1,286047000.9,P
1662550976.0,286047000.9,N
1662550995.8,286047010.9,P
1662551015.7,286047011.4,N
1662551035.5,286047009.7,N
1662551055.3,286047007.9,N
1662551075.2,286047008.5,N
1662551095.0,286047006.8,N
1662551095.9,286047006.8,N
1662551115.8,286047004.6,N
1662551135.6,286047005.0,N
1662551155.4,286047005.2,N
1662551175.3,286047005.7,N
1662551195.1,286047005.7,N
1662551215.8,286047003.2,N
1662551235.7,286047004.3,N
1662551255.5,286047001.7,N
1662551275.4,286047002.0,N
1662551295.2,286047000.0,N
1662551315.0,286047002.7,N
1662551315.9,286047002.7,N
1662551335.8,286046999.9,N
1662551355.6,286047000.1,N
1662551375.4,286047002.8,N
1662551395.3,286047002.3,N
1662551415.1,286047002.2,N
1662551435.9,286047002.2,N
1662551455.7,286047001.8,N
1662551475.5,286047000.0,N
1662551495.4,286047000.5,N
1662551515.2,286047002.6,N
1662551535.0,286046999.8,N
1662551535.9,286046999.8,N
1662551555.8,286047000.0,N
1662551575.6,286047002.4,N
1662551595.5,286047000.9,N
1662551615.3,286047000.3,N
1662551635.1,286047002.3,N
1662551655.9,286047002.8,N
1662551675.7,286047000.2,N
1662551695.5,286047000.4,N
1662551715.4,286047000.5,N
1662551735.2,286046999.8,N
1662551755.1,286047000.5,N
1662551756.0,286047000.5,N
1662551775.8,286046998.6,N
1662551795.6,286047000.7,N
1662551815.5,286047000.8,N
1662551835.3,286047000.8,N
1662551855.2,286047000.8,N
1662551875.9,286047001.2,N
1662551895.7,286047001.0,N
1662551915.6,286046998.4,N
1662551935.4,286046999.2,N
1662551955.2,286046998.3,N
1662551975.1,286046999.1,N
1662551976.0,286046999.1,N
1662551995.8,286046996.6,N
